Location: Jesenik
(50.2330°N, 17.2000°E)
Time: 20:20:38
(UTC+02:00)

ISS - Pass Details

Date: 29 March 2019
Orbit: 408 x 410 km, 51.6° (Epoch: 25 April)

Event Time Altitude Azimuth Distance (km) Brightness Sun altitude
Rises 21:41:28 0° 287° (WNW) 2,337 0.8 -29.0°
Reaches altitude 10° 21:43:35 10° 283° (WNW) 1,474 -0.4 -29.2°
Enters shadow 21:43:42 11° 282° (WNW) 1,429 -0.5 -29.2°
